Regional Weather Roundup
Issued by NWS Albany, NY

Current Version | Previous Version | Graphics & Text | Print | Product List | Glossary Off
Versions: 1 2 3 4 5 6 7 8 9 10 11 12 13 14 15 16 17 18 19 20 21 22 23 24 25 26 27 28 29 30 31 32 33 34 35 36 37 38 39 40 41 42 43 44 45 46 47 48 49 50

000
ASUS41 KALY 291210
RWRALY

NEW YORK STATE HOURLY WEATHER ROUNDUP
NATIONAL WEATHER SERVICE ALBANY NY
800 AM EDT FRI AUG 29 2014

NOTE: "FAIR" INDICATES FEW OR NO CLOUDS BELOW 12,000 FEET WITH NO
SIGNIFICANT WEATHER AND/OR NO OBSTRUCTIONS TO VISIBILITY.

NYZ032-033-038>043-046>054-057>066-NYZ062>081-291300-
EAST


CITY           SKY/WX    TMP DP  RH WIND       PRES   REMARKS
ALBANY         MOSUNNY   59  53  80 W3        30.19R
GLENS FALLS    SUNNY     60  53  77 N7        30.18R
POUGHKEEPSIE   SUNNY     55  52  89 CALM      30.18R
NEWBURGH       SUNNY     57  54  88 CALM      30.20R
MONTGOMERY     SUNNY     55  51  86 SE3       30.19R
WHITE PLAINS   SUNNY     63  51  65 N12       30.16R
ISLIP          PTSUNNY   66  53  63 N6        30.14R
NEW YORK CITY  PTSUNNY   66  52  60 NW8       30.16R
CENTRAL PARK   MOSUNNY   64  50  60 CALM      30.19R
$$

NYZ005>009-017-018-044>046-055-056-291300-
CENTRAL


CITY           SKY/WX    TMP DP  RH WIND       PRES   REMARKS
FULTON         SUNNY     56  54  93 CALM      30.21R
SYRACUSE       MOSUNNY   58  54  86 CALM      30.21R
ROME           SUNNY     51  49  92 CALM      30.22R
ELMIRA         FOG       50  50 100 SW8       30.22R VSB 1
BINGHAMTON     SUNNY     56  51  84 N3        30.21R
MONTICELLO     MOSUNNY   52  48  87 W6        30.21R
$$

NYZ026>034-041>043-291300-
NORTH


CITY           SKY/WX    TMP DP  RH WIND       PRES   REMARKS
WATERTOWN      SUNNY     55  49  80 CALM      30.20R
FORT DRUM      NOT AVBL
MASSENA        SUNNY     55  53  93 SE3       30.20R
SARANAC LAKE   PTSUNNY   50  48  93 CALM      30.19R
PLATTSBURGH    CLOUDY    56  54  93 CALM      30.18R
$$

NYZ001>004-010>016-019>021-291300-
WEST


CITY           SKY/WX    TMP DP  RH WIND       PRES   REMARKS
NIAGARA FALLS  PTSUNNY   54  50  86 CALM      30.19R
BUFFALO        PTSUNNY   54  49  83 S3        30.19R
DUNKIRK        PTSUNNY   59  56  89 CALM      30.19R
WELLSVILLE     SUNNY     50  48  93 CALM      30.24R
ROCHESTER      PTSUNNY   54  51  90 SW6       30.21R
PENN YAN       SUNNY     56  53  90 SW5       30.22R
$$

             KEY
       WCI = WIND CHILL INDEX
       VSB = VISIBILITY
       HX  = HEAT INDEX
$$



USA.gov is the U.S. government's official web portal to all federal, state and local government web resources and services.